Time,TemperatureF,DewpointF,PressureIn,WindDirection,WindDirectionDegrees,WindSpeedMPH,WindSpeedGustMPH,Humidity,HourlyPrecipIn,Conditions,Clouds,dailyrainin,SoftwareType,DateUTC
2013-06-10 00:02:00,56.0,39.0,-100.00,NW,308,6.0,9.0,52,0.00,,,-99.99,,2013-06-10 06:02:00,
2013-06-10 00:12:00,56.0,39.0,-100.00,NW,312,5.0,8.0,53,0.00,,,-99.99,,2013-06-10 06:12:00,
2013-06-10 00:22:00,53.0,38.0,-100.00,NNW,328,4.0,6.0,58,0.00,,,-99.99,,2013-06-10 06:22:00,
2013-06-10 00:32:00,53.0,38.0,-100.00,NNW,328,4.0,6.0,58,0.00,,,-99.99,,2013-06-10 06:32:00,
2013-06-10 00:42:00,53.0,39.0,-100.00,NW,311,4.0,7.0,60,0.00,,,-99.99,,2013-06-10 06:42:00,
2013-06-10 00:53:00,54.0,39.0,-100.00,WNW,291,4.0,8.0,58,0.00,,,-99.99,,2013-06-10 06:53:00,
2013-06-10 01:02:00,54.0,39.0,-100.00,WNW,291,4.0,8.0,58,0.00,,,-99.99,,2013-06-10 07:02:00,
2013-06-10 01:12:00,53.0,39.0,-100.00,West,271,2.0,4.0,59,0.00,,,-99.99,,2013-06-10 07:12:00,
2013-06-10 01:22:00,52.0,40.0,-100.00,WNW,291,1.0,2.0,63,0.00,,,-99.99,,2013-06-10 07:22:00,
2013-06-10 01:32:00,52.0,40.0,-100.00,WNW,291,1.0,2.0,63,0.00,,,-99.99,,2013-06-10 07:32:00,
2013-06-10 01:42:00,50.0,39.0,-100.00,North,357,2.0,2.0,68,0.00,,,-99.99,,2013-06-10 07:42:00,
2013-06-10 01:52:00,48.0,39.0,-100.00,ENE,61,1.0,2.0,69,0.00,,,-99.99,,2013-06-10 07:52:00,
2013-06-10 02:02:00,48.0,39.0,-100.00,ENE,61,1.0,2.0,69,0.00,,,-99.99,,2013-06-10 08:02:00,
2013-06-10 02:12:00,48.0,39.0,-100.00,NW,323,1.0,2.0,71,0.00,,,-99.99,,2013-06-10 08:12:00,
2013-06-10 02:22:00,47.0,39.0,-100.00,West,277,2.0,3.0,72,0.00,,,-99.99,,2013-06-10 08:22:00,
2013-06-10 02:32:00,47.0,39.0,-100.00,West,277,2.0,3.0,72,0.00,,,-99.99,,2013-06-10 08:32:00,
2013-06-10 02:42:00,47.0,38.0,-100.00,NW,326,1.0,2.0,72,0.00,,,-99.99,,2013-06-10 08:42:00,
2013-06-10 02:52:00,47.0,39.0,-100.00,NW,322,1.0,2.0,74,0.00,,,-99.99,,2013-06-10 08:52:00,
2013-06-10 03:02:00,47.0,39.0,-100.00,NW,322,1.0,2.0,74,0.00,,,-99.99,,2013-06-10 09:02:00,
2013-06-10 03:12:00,46.0,38.0,-100.00,NNW,330,2.0,2.0,73,0.00,,,-99.99,,2013-06-10 09:12:00,
2013-06-10 03:22:00,46.0,38.0,-100.00,WNW,288,1.0,2.0,74,0.00,,,-99.99,,2013-06-10 09:22:00,
2013-06-10 03:32:00,46.0,38.0,-100.00,WNW,288,1.0,2.0,74,0.00,,,-99.99,,2013-06-10 09:32:00,
2013-06-10 03:42:00,45.0,38.0,-100.00,ESE,106,0.0,1.0,76,0.00,,,-99.99,,2013-06-10 09:42:00,
2013-06-10 03:53:00,45.0,38.0,-100.00,NW,319,1.0,2.0,75,0.00,,,-99.99,,2013-06-10 09:53:00,
2013-06-10 04:02:00,45.0,38.0,-100.00,NW,319,1.0,2.0,75,0.00,,,-99.99,,2013-06-10 10:02:00,
2013-06-10 04:12:00,45.0,38.0,-100.00,NW,305,1.0,2.0,75,0.00,,,-99.99,,2013-06-10 10:12:00,
2013-06-10 04:22:00,45.0,37.0,-100.00,NNW,329,2.0,2.0,75,0.00,,,-99.99,,2013-06-10 10:22:00,
2013-06-10 04:33:00,45.0,37.0,-100.00,NNW,329,2.0,2.0,75,0.00,,,-99.99,,2013-06-10 10:33:00,
2013-06-10 04:42:00,44.0,38.0,-100.00,WNW,298,1.0,2.0,77,0.00,,,-99.99,,2013-06-10 10:42:00,
2013-06-10 04:52:00,44.0,37.0,-100.00,NW,325,2.0,3.0,74,0.00,,,-99.99,,2013-06-10 10:52:00,
2013-06-10 05:02:00,44.0,37.0,-100.00,NW,325,2.0,3.0,74,0.00,,,-99.99,,2013-06-10 11:02:00,
2013-06-10 05:12:00,44.0,38.0,-100.00,WNW,291,0.0,1.0,80,0.00,,,-99.99,,2013-06-10 11:12:00,
2013-06-10 05:22:00,44.0,38.0,-100.00,NW,315,1.0,1.0,80,0.00,,,-99.99,,2013-06-10 11:22:00,
2013-06-10 05:32:00,44.0,38.0,-100.00,NW,315,1.0,1.0,80,0.00,,,-99.99,,2013-06-10 11:32:00,
2013-06-10 05:42:00,43.0,37.0,-100.00,WNW,301,0.0,1.0,80,0.00,,,-99.99,,2013-06-10 11:42:00,
2013-06-10 05:52:00,43.0,38.0,-100.00,WNW,288,1.0,1.0,81,0.00,,,-99.99,,2013-06-10 11:52:00,
2013-06-10 06:02:00,43.0,38.0,-100.00,WNW,288,1.0,1.0,81,0.00,,,-99.99,,2013-06-10 12:02:00,
2013-06-10 06:12:00,43.0,38.0,-100.00,ESE,102,0.0,2.0,82,0.00,,,-99.99,,2013-06-10 12:12:00,
2013-06-10 06:22:00,43.0,36.0,-100.00,WNW,301,1.0,2.0,78,0.00,,,-99.99,,2013-06-10 12:22:00,
2013-06-10 06:32:00,43.0,36.0,-100.00,WNW,301,1.0,2.0,78,0.00,,,-99.99,,2013-06-10 12:32:00,
2013-06-10 06:42:00,43.0,36.0,-100.00,SW,227,1.0,2.0,77,0.00,,,-99.99,,2013-06-10 12:42:00,
2013-06-10 06:52:00,43.0,36.0,-100.00,NW,318,1.0,2.0,75,0.00,,,-99.99,,2013-06-10 12:52:00,
2013-06-10 07:02:00,43.0,36.0,-100.00,NW,318,1.0,2.0,75,0.00,,,-99.99,,2013-06-10 13:02:00,
2013-06-10 07:11:00,43.0,35.0,-100.00,NNE,23,0.0,1.0,74,0.00,,,-99.99,,2013-06-10 13:11:00,
2013-06-10 07:22:00,43.0,34.0,-100.00,NW,318,2.0,3.0,70,0.00,,,-99.99,,2013-06-10 13:22:00,
2013-06-10 07:32:00,43.0,34.0,-100.00,NW,318,2.0,3.0,70,0.00,,,-99.99,,2013-06-10 13:32:00,
2013-06-10 07:42:00,44.0,34.0,-100.00,NNE,25,1.0,2.0,68,0.00,,,-99.99,,2013-06-10 13:42:00,
2013-06-10 07:52:00,45.0,34.0,-100.00,NNW,329,2.0,3.0,64,0.00,,,-99.99,,2013-06-10 13:52:00,
2013-06-10 08:02:00,51.0,36.0,-100.00,NW,322,6.0,6.0,58,0.00,,,-99.99,,2013-06-10 14:02:00,
2013-06-10 08:22:00,52.0,37.0,-100.00,NNW,328,6.0,8.0,58,0.00,,,-99.99,,2013-06-10 14:22:00,
2013-06-10 08:32:00,52.0,37.0,-100.00,NNW,328,6.0,8.0,58,0.00,,,-99.99,,2013-06-10 14:32:00,
2013-06-10 08:42:00,51.0,36.0,-100.00,NNW,330,8.0,10.0,56,0.00,,,-99.99,,2013-06-10 14:42:00,
2013-06-10 08:52:00,53.0,37.0,-100.00,NNW,332,8.0,10.0,55,0.00,,,-99.99,,2013-06-10 14:52:00,
2013-06-10 09:02:00,53.0,37.0,-100.00,NNW,332,8.0,10.0,55,0.00,,,-99.99,,2013-06-10 15:02:00,
2013-06-10 09:12:00,53.0,37.0,-100.00,NNW,336,8.0,11.0,56,0.00,,,-99.99,,2013-06-10 15:12:00,
2013-06-10 09:22:00,53.0,37.0,-100.00,NNW,328,9.0,11.0,54,0.00,,,-99.99,,2013-06-10 15:22:00,
2013-06-10 09:32:00,53.0,37.0,-100.00,NNW,328,9.0,11.0,54,0.00,,,-99.99,,2013-06-10 15:32:00,
2013-06-10 09:43:00,54.0,36.0,-100.00,NNW,330,8.0,11.0,51,0.00,,,-99.99,,2013-06-10 15:43:00,
2013-06-10 09:53:00,54.0,37.0,-100.00,NW,325,8.0,10.0,51,0.00,,,-99.99,,2013-06-10 15:53:00,
2013-06-10 10:03:00,54.0,37.0,-100.00,NW,325,8.0,10.0,51,0.00,,,-99.99,,2013-06-10 16:03:00,
2013-06-10 10:12:00,55.0,37.0,-100.00,NNW,336,7.0,10.0,50,0.00,,,-99.99,,2013-06-10 16:12:00,
2013-06-10 10:23:00,56.0,37.0,-100.00,NW,325,7.0,9.0,47,0.00,,,-99.99,,2013-06-10 16:23:00,
2013-06-10 10:33:00,56.0,37.0,-100.00,NW,325,7.0,9.0,47,0.00,,,-99.99,,2013-06-10 16:33:00,
2013-06-10 10:42:00,57.0,38.0,-100.00,NNW,328,6.0,9.0,47,0.00,,,-99.99,,2013-06-10 16:42:00,
2013-06-10 10:53:00,57.0,38.0,-100.00,NNW,328,9.0,11.0,48,0.00,,,-99.99,,2013-06-10 16:53:00,
2013-06-10 11:03:00,57.0,38.0,-100.00,NNW,328,9.0,11.0,48,0.00,,,-99.99,,2013-06-10 17:03:00,
2013-06-10 11:14:00,58.0,37.0,-100.00,NNW,337,8.0,11.0,45,0.00,,,-99.99,,2013-06-10 17:14:00,
2013-06-10 11:26:00,58.0,38.0,-100.00,NNW,329,7.0,10.0,46,0.00,,,-99.99,,2013-06-10 17:26:00,
2013-06-10 11:38:00,60.0,39.0,-100.00,NNW,330,9.0,11.0,46,0.00,,,-99.99,,2013-06-10 17:38:00,
2013-06-10 11:48:00,60.0,39.0,-100.00,NNW,330,9.0,11.0,46,0.00,,,-99.99,,2013-06-10 17:48:00,
2013-06-10 11:58:00,60.0,38.0,-100.00,NW,320,9.0,11.0,44,0.00,,,-99.99,,2013-06-10 17:58:00,
2013-06-10 12:07:00,60.0,38.0,-100.00,NW,320,9.0,11.0,44,0.00,,,-99.99,,2013-06-10 18:07:00,
2013-06-10 12:14:00,61.0,38.0,-100.00,NW,323,9.0,13.0,43,0.00,,,-99.99,,2013-06-10 18:14:00,
2013-06-10 12:24:00,62.0,38.0,-100.00,WNW,302,8.0,11.0,41,0.00,,,-99.99,,2013-06-10 18:24:00,
2013-06-10 12:34:00,62.0,38.0,-100.00,WNW,302,8.0,11.0,41,0.00,,,-99.99,,2013-06-10 18:34:00,
2013-06-10 12:48:00,62.0,39.0,-100.00,NNW,330,9.0,12.0,43,0.00,,,-99.99,,2013-06-10 18:48:00,
2013-06-10 12:55:00,63.0,39.0,-100.00,NW,326,9.0,11.0,42,0.00,,,-99.99,,2013-06-10 18:55:00,
2013-06-10 13:03:00,63.0,39.0,-100.00,NW,326,9.0,11.0,42,0.00,,,-99.99,,2013-06-10 19:03:00,
2013-06-10 13:12:00,63.0,40.0,-100.00,NW,313,9.0,14.0,42,0.00,,,-99.99,,2013-06-10 19:12:00,
2013-06-10 13:22:00,64.0,38.0,-100.00,NW,319,10.0,13.0,39,0.00,,,-99.99,,2013-06-10 19:22:00,
2013-06-10 13:32:00,64.0,38.0,-100.00,NW,319,10.0,13.0,39,0.00,,,-99.99,,2013-06-10 19:32:00,
2013-06-10 13:42:00,65.0,38.0,-100.00,NW,320,9.0,13.0,37,0.00,,,-99.99,,2013-06-10 19:42:00,
2013-06-10 13:53:00,64.0,39.0,-100.00,NNW,329,10.0,13.0,39,0.00,,,-99.99,,2013-06-10 19:53:00,
2013-06-10 14:02:00,64.0,39.0,-100.00,NNW,329,10.0,13.0,39,0.00,,,-99.99,,2013-06-10 20:02:00,
2013-06-10 14:12:00,65.0,40.0,-100.00,NNW,329,13.0,17.0,40,0.00,,,-99.99,,2013-06-10 20:12:00,
2013-06-10 14:22:00,65.0,40.0,-100.00,NW,315,11.0,14.0,39,0.00,,,-99.99,,2013-06-10 20:22:00,
2013-06-10 14:32:00,65.0,40.0,-100.00,NW,315,11.0,14.0,39,0.00,,,-99.99,,2013-06-10 20:32:00,
2013-06-10 14:43:00,67.0,40.0,-100.00,NW,309,9.0,12.0,38,0.00,,,-99.99,,2013-06-10 20:43:00,
2013-06-10 14:52:00,66.0,40.0,-100.00,NW,315,9.0,12.0,39,0.00,,,-99.99,,2013-06-10 20:52:00,
2013-06-10 15:02:00,66.0,40.0,-100.00,NW,315,9.0,12.0,39,0.00,,,-99.99,,2013-06-10 21:02:00,
2013-06-10 15:12:00,66.0,39.0,-100.00,NNW,328,14.0,16.0,37,0.00,,,-99.99,,2013-06-10 21:12:00,
2013-06-10 15:22:00,66.0,40.0,-100.00,NNW,335,10.0,13.0,38,0.00,,,-99.99,,2013-06-10 21:22:00,
2013-06-10 15:33:00,66.0,40.0,-100.00,NNW,335,10.0,13.0,38,0.00,,,-99.99,,2013-06-10 21:33:00,
2013-06-10 15:43:00,67.0,39.0,-100.00,NW,323,13.0,16.0,37,0.00,,,-99.99,,2013-06-10 21:43:00,
2013-06-10 15:53:00,67.0,40.0,-100.00,NW,319,12.0,15.0,37,0.00,,,-99.99,,2013-06-10 21:53:00,
2013-06-10 16:03:00,68.0,39.0,-100.00,NW,326,13.0,19.0,34,0.00,,,-99.99,,2013-06-10 22:03:00,
2013-06-10 16:12:00,68.0,39.0,-100.00,NW,326,13.0,19.0,34,0.00,,,-99.99,,2013-06-10 22:12:00,
2013-06-10 16:22:00,68.0,39.0,-100.00,NNW,336,11.0,14.0,35,0.00,,,-99.99,,2013-06-10 22:22:00,
2013-06-10 16:33:00,68.0,39.0,-100.00,NNW,336,11.0,14.0,35,0.00,,,-99.99,,2013-06-10 22:33:00,
2013-06-10 16:42:00,70.0,38.0,-100.00,NW,325,9.0,13.0,31,0.00,,,-99.99,,2013-06-10 22:42:00,
2013-06-10 16:52:00,68.0,37.0,-100.00,NNW,328,14.0,20.0,31,0.00,,,-99.99,,2013-06-10 22:52:00,
2013-06-10 17:02:00,68.0,37.0,-100.00,NNW,328,14.0,20.0,31,0.00,,,-99.99,,2013-06-10 23:02:00,
2013-06-10 17:12:00,69.0,37.0,-100.00,NNW,328,13.0,18.0,31,0.00,,,-99.99,,2013-06-10 23:12:00,
2013-06-10 17:22:00,69.0,37.0,-100.00,NNW,328,15.0,18.0,31,0.00,,,-99.99,,2013-06-10 23:22:00,
2013-06-10 17:32:00,69.0,37.0,-100.00,NNW,328,15.0,18.0,31,0.00,,,-99.99,,2013-06-10 23:32:00,
2013-06-10 17:42:00,70.0,38.0,-100.00,NW,322,12.0,17.0,31,0.00,,,-99.99,,2013-06-10 23:42:00,
2013-06-10 17:52:00,70.0,36.0,-100.00,NW,311,13.0,17.0,28,0.00,,,-99.99,,2013-06-10 23:52:00,
2013-06-10 18:02:00,70.0,36.0,-100.00,NW,311,13.0,17.0,28,0.00,,,-99.99,,2013-06-11 00:02:00,
2013-06-10 18:12:00,70.0,36.0,-100.00,NW,322,13.0,19.0,28,0.00,,,-99.99,,2013-06-11 00:12:00,
2013-06-10 18:22:00,70.0,35.0,-100.00,NW,313,13.0,19.0,27,0.00,,,-99.99,,2013-06-11 00:22:00,
2013-06-10 18:32:00,70.0,35.0,-100.00,NW,313,13.0,19.0,27,0.00,,,-99.99,,2013-06-11 00:32:00,
2013-06-10 18:42:00,69.0,34.0,-100.00,NW,319,15.0,19.0,27,0.00,,,-99.99,,2013-06-11 00:42:00,
2013-06-10 18:52:00,69.0,35.0,-100.00,NW,318,14.0,19.0,28,0.00,,,-99.99,,2013-06-11 00:52:00,
2013-06-10 19:02:00,69.0,35.0,-100.00,NW,318,14.0,19.0,28,0.00,,,-99.99,,2013-06-11 01:02:00,
2013-06-10 19:12:00,69.0,35.0,-100.00,NW,311,10.0,17.0,29,0.00,,,-99.99,,2013-06-11 01:12:00,
2013-06-10 19:22:00,69.0,36.0,-100.00,NW,316,12.0,19.0,30,0.00,,,-99.99,,2013-06-11 01:22:00,
2013-06-10 19:32:00,69.0,36.0,-100.00,NW,316,12.0,19.0,30,0.00,,,-99.99,,2013-06-11 01:32:00,
2013-06-10 19:42:00,68.0,34.0,-100.00,NW,325,11.0,15.0,29,0.00,,,-99.99,,2013-06-11 01:42:00,
2013-06-10 19:52:00,68.0,34.0,-100.00,NW,325,11.0,15.0,29,0.00,,,-99.99,,2013-06-11 01:52:00,
2013-06-10 20:02:00,68.0,34.0,-100.00,NW,325,11.0,15.0,29,0.00,,,-99.99,,2013-06-11 02:02:00,
2013-06-10 20:12:00,67.0,35.0,-100.00,NW,318,9.0,12.0,30,0.00,,,-99.99,,2013-06-11 02:12:00,
2013-06-10 20:22:00,66.0,33.0,-100.00,NW,308,9.0,13.0,30,0.00,,,-99.99,,2013-06-11 02:22:00,
2013-06-10 20:32:00,66.0,33.0,-100.00,NW,308,9.0,13.0,30,0.00,,,-99.99,,2013-06-11 02:32:00,
2013-06-10 20:42:00,66.0,33.0,-100.00,NW,316,10.0,13.0,30,0.00,,,-99.99,,2013-06-11 02:42:00,
2013-06-10 20:52:00,64.0,34.0,-100.00,NW,313,8.0,13.0,32,0.00,,,-99.99,,2013-06-11 02:52:00,
2013-06-10 21:02:00,64.0,34.0,-100.00,NW,313,8.0,13.0,32,0.00,,,-99.99,,2013-06-11 03:02:00,
2013-06-10 21:12:00,63.0,35.0,-100.00,NW,322,8.0,11.0,34,0.00,,,-99.99,,2013-06-11 03:12:00,
2013-06-10 21:22:00,63.0,35.0,-100.00,NW,325,5.0,7.0,36,0.00,,,-99.99,,2013-06-11 03:22:00,
2013-06-10 21:32:00,63.0,35.0,-100.00,NW,325,5.0,7.0,36,0.00,,,-99.99,,2013-06-11 03:32:00,
2013-06-10 21:43:00,61.0,35.0,-100.00,NW,309,5.0,9.0,38,0.00,,,-99.99,,2013-06-11 03:43:00,
2013-06-10 21:53:00,61.0,35.0,-100.00,NW,309,5.0,9.0,38,0.00,,,-99.99,,2013-06-11 03:53:00,
2013-06-10 22:02:00,61.0,35.0,-100.00,NW,309,5.0,9.0,38,0.00,,,-99.99,,2013-06-11 04:02:00,
2013-06-10 22:12:00,61.0,34.0,-100.00,North,352,4.0,5.0,36,0.00,,,-99.99,,2013-06-11 04:12:00,
2013-06-10 22:23:00,61.0,34.0,-100.00,North,0,5.0,7.0,36,0.00,,,-99.99,,2013-06-11 04:23:00,
2013-06-10 22:33:00,61.0,34.0,-100.00,North,0,5.0,7.0,36,0.00,,,-99.99,,2013-06-11 04:33:00,
2013-06-10 22:42:00,59.0,38.0,-100.00,North,349,7.0,9.0,46,0.31,,,-99.99,,2013-06-11 04:42:00,
2013-06-10 22:53:00,53.0,45.0,-100.00,NW,311,8.0,10.0,76,0.08,,,-99.99,,2013-06-11 04:53:00,
2013-06-10 23:02:00,53.0,45.0,-100.00,NW,311,8.0,10.0,76,0.08,,,-99.99,,2013-06-11 05:02:00,
2013-06-10 23:12:00,50.0,48.0,-100.00,WNW,287,5.0,7.0,91,0.12,,,-99.99,,2013-06-11 05:12:00,
2013-06-10 23:22:00,50.0,48.0,-100.00,NNW,342,4.0,5.0,93,0.24,,,-99.99,,2013-06-11 05:22:00,
2013-06-10 23:32:00,50.0,48.0,-100.00,NNW,342,4.0,5.0,93,0.24,,,-99.99,,2013-06-11 05:32:00,
2013-06-10 23:42:00,49.0,48.0,-100.00,NW,312,4.0,5.0,94,0.00,,,-99.99,,2013-06-11 05:42:00,
2013-06-10 23:52:00,50.0,47.0,-100.00,WSW,258,4.0,6.0,89,0.08,,,-99.99,,2013-06-11 05:52:00,